ROMMA est une association bénévole à but non lucratif. Votre soutien est indispensable : ADHERER à ROMMA ou FAIRE un DON

Chambon - (38, Isère)

Oisans (2460 m)   Longitude: 06° 10' 42" E   Latitude: 45° 01' 32" N Station partenaire n°803
 

Détail journalier du     <<     >>

Température Humidité Vent Dir Rafale Dir. rafale Neige 1 Neige 2
Heure (°C) (%) (km/h) (km/h) (cm) (cm)
01:00 -4.0382N6N202240
02:00 -3.8365SO11OSO201240
03:00 -4.5453NE8NE201240
04:00 -3.8441NNE10NNE201240
05:00 -4.4706N14NNE201240
06:00 -4.3709NNE21NNE201240
07:00 -1.82216NE47SE199240
08:00 -1.92519SE49SE199240
09:00 -1.82813SSE35SSE199240
10:00 -3.06213ENE38ENE199240
11:00 -1.8549NNE42NNE199240
12:00 -1.7558ENE38ENE198240
13:00 -0.3506ENE34ENE198240
14:00 -0.2556ENE19OSO198240
15:00 0.0596NNE24NNE198240
16:00 -2.57812NNE30NNE198240
17:00 -2.98312NE25NE198240
18:00 -3.4935NE18NE197240
19:00 -4.49716NE34NE197240
20:00 -4.49814NNE35NE197240
21:00 -4.69810N25NE197240
22:00 -4.8988NNE21NNE197240
23:00 -4.9986NNE14NNE199240
minuit -5.3975N12N199240

Graphique du 06-04-2019

 

Serveur OMMA